Change the Weather History Date:

Tuesday, October 15, 2013

  Actual Average Record
Temperature  
Mean Temperature 74 °F -  
Max Temperature 86 °F 80 °F 100 °F (1997)
Min Temperature 61 °F 54 °F 50 °F (2000)
Cooling Degree Days 8    
Growing Degree Days 24 (Base 50)    
Moisture  
Dew Point 27 °F    
Average Humidity 20    
Maximum Humidity 36    
Minimum Humidity 9    
Precipitation  
Precipitation 0.00 in - - ()
Sea Level Pressure  
Sea Level Pressure 29.91 in    
Wind  
Wind Speed 5 mph (NNE)    
Max Wind Speed 14 mph    
Max Gust Speed 22 mph    
Visibility 10 miles    
Events      
Averages and records for this station are not official NWS values.
T = Trace of Precipitation, MM = Missing Value Source: NWS Daily Summary

Daily Weather History Graph

Daily Weather History Graph

Search for Another Location

Airport or City:

Trip Planner

Search our weather history database for the weather conditions in past years. The results will help you decide how hot, cold, wet, or windy it might be!

Date:

Astronomy

Oct. 15, 2013 Rise Set
Actual Time 6:59 AM PDT 6:19 PM PDT
Civil Twilight 6:34 AM PDT 6:44 PM PDT
Nautical Twilight 6:05 AM PDT 7:13 PM PDT
Astronomical Twilight 5:36 AM PDT 7:42 PM PDT
Moon 4:20 PM PDT (10/15) 3:35 AM PDT (10/15)
Length of Visible Light 12h 10m
Length of Day
11h 19m
Waxing Gibbous, 88% of the Moon is Illuminated
Oct 15
Waxing Gibbous
Oct 18
Full
Oct 26
Last Quarter
Nov 3
New
Nov 9
First Quarter

Hourly Weather History & Observations

Time (PDT) Temp. Dew Point Humidity Pressure Visibility Wind Dir Wind Speed Gust Speed Precip Events Conditions
12:51 AM 63.0 °F 35.1 °F 35% 29.93 in 10.0 mi Calm Calm - N/A   Clear
1:51 AM 61.0 °F 34.0 °F 36% 29.93 in 10.0 mi Calm Calm - N/A   Clear
2:51 AM 69.1 °F 25.0 °F 19% 29.91 in 10.0 mi North 9.2 mph - N/A   Clear
3:51 AM 69.1 °F 24.1 °F 18% 29.89 in 10.0 mi North 13.8 mph 21.9 mph N/A   Clear
4:51 AM 68.0 °F 24.1 °F 19% 29.89 in 10.0 mi North 10.4 mph - N/A   Clear
5:51 AM 64.9 °F 25.0 °F 22% 29.90 in 10.0 mi Calm Calm - N/A   Clear
6:51 AM 64.0 °F 26.1 °F 24% 29.92 in 10.0 mi Calm Calm - N/A   Clear
7:51 AM 63.0 °F 30.0 °F 29% 29.93 in 10.0 mi Calm Calm - N/A   Clear
8:51 AM 70.0 °F 28.9 °F 22% 29.94 in 10.0 mi North 8.1 mph - N/A   Clear
9:51 AM 77.0 °F 26.1 °F 15% 29.94 in 10.0 mi North 9.2 mph - N/A   Clear
10:51 AM 81.0 °F 25.0 °F 13% 29.93 in 10.0 mi North 8.1 mph - N/A   Clear
11:51 AM 82.9 °F 21.9 °F 11% 29.92 in 10.0 mi Calm Calm - N/A   Clear
12:51 PM 84.9 °F 21.9 °F 10% 29.90 in 10.0 mi NNE 5.8 mph - N/A   Clear
1:51 PM 86.0 °F 21.0 °F 9% 29.88 in 10.0 mi SE 4.6 mph - N/A   Clear
2:51 PM 84.9 °F 25.0 °F 11% 29.86 in 10.0 mi South 11.5 mph - N/A   Clear
3:51 PM 84.9 °F 24.1 °F 11% 29.85 in 10.0 mi SSE 12.7 mph - N/A   Clear
4:51 PM 84.0 °F 25.0 °F 12% 29.85 in 10.0 mi South 11.5 mph - N/A   Clear
5:51 PM 82.9 °F 23.0 °F 11% 29.86 in 10.0 mi NNE 9.2 mph - N/A   Clear
6:51 PM 78.1 °F 27.0 °F 15% 29.88 in 10.0 mi ENE 6.9 mph - N/A   Clear
7:51 PM 75.0 °F 28.9 °F 18% 29.91 in 10.0 mi WSW 3.5 mph - N/A   Clear
8:51 PM 72.0 °F 30.9 °F 22% 29.93 in 10.0 mi Calm Calm - N/A   Clear
9:51 PM 69.1 °F 30.0 °F 23% 29.95 in 10.0 mi Calm Calm - N/A   Clear
10:51 PM 64.9 °F 35.1 °F 33% 29.96 in 10.0 mi Calm Calm - N/A   Clear
11:51 PM 63.0 °F 33.1 °F 33% 29.96 in 10.0 mi Calm Calm - N/A   Clear